"Pseudo-MPEC" for P10NAFO

Created 2019 May 21 3:07:14 UT using Find_Orb

Click here for an explanation of pseudo-MPECs

 
 Astrometry: 
     P10NAFO  C2019 05 07u5f7ECa0bfv$-;p@loscbC;EAstrometrybi`CRUXredacted;?lF51
     P10NAFO  C2019 05 078djStR@JV'e!1uNO8qj]Y3w:VOoiH'2,[`8U0H\O)]a$2j]ZS=m*F51
     P10NAFO  C2019 05 071#4Zl\PtI6//(d@QI4708#/a4X[Gi_5#+KTYtjh*s,$$`M8x8*!lF51
     P10NAFO |C2019 05 119b[0@WcUFA;qONlsqPF#.Jd5'!=tnZU$TK5r[[9v-BJy;A)by7f=807
     P10NAFO |C2019 05 11]Yclick.^P\,dk1?pkQ\*'iL,BA'%)ZppwvS0^7;@C%1.x(/i3EM807
     P10NAFO |C2019 05 11;hS!du(i$c_N:5'%tr@:pyXxbgAufojTHkwNakF*+\2d0*^JT^*3807
     P10NAFO |C2019 05 156lTWhAXO)$HRhere/\C0g(FSGV7+ZlCe%3W3EyTKX^T6,5hoqeY8807
     P10NAFO |C2019 05 15m%k:5)pOC5TWlgFv'XZ\n@K\5v!o5HNZcd==4l`IFqohs;!sR7Ar807
     P10NAFO |C2019 05 15bWa8X0M'_bD#%a7rG:r?/:l%XGforR0^t\Qx90.@7G(5J.v;ZwUR807
     P10NAFO KC2019 05 15p?mcx%0PjexplanationIJI$f3]W4?l_'BTa?dn6);S'@=Wdf\kj291
     P10NAFO KC2019 05 158o,$\i5qc'0j#d,BN21;e85)JI,k9x:Fwi7nRr$wuB)qq)*(xIu3291
     P10NAFO KC2019 05 15,y3V_XI]so9p9*EvBQr%Hib,L`0!NaL9tvvmE5=^?5*ue],('n5-291

Station data:
(291) LPL/Spacewatch II  (N31.961669 W111.599905)  US/Arizona.  Observers J.
   V. Scotti, R. S. McMillan. 1.8-m f/2.7 reflector + CCD.
(807) Cerro Tololo Observatory, La Serena  (S30.169136 W70.805900)  Chile.
(F51) Pan-STARRS 1, Haleakala  (N20.707235 W156.255910)  US/Hawaii.
   Observers N. Primak, A. Schultz, S. Watters, J. Thiel, T. Goggia. Measurer
   PS1 Science Consortium. 1.8-m Ritchey-Chrétien + CCD.

Orbital elements:  P10NAFO
   Perihelion 2018 Jul 4.138772 +/- 4.34 TT =  3:19:49 (JD 2458303.638772)
Epoch 2019 May 15.0 TT = JDT 2458618.5   Earth MOID: 0.6787   Ma: 0.0941
M 120.77223448 +/- 1.5              (J2000 ecliptic)          AutoNEOCP
n   0.38357290 +/- 0.000476         Peri.   20.14417 +/- 1.1
a   1.87601988 +/- 0.00155          Node    84.53552 +/- 0.13
e   0.1175510 +/- 0.00127           Incl.   20.96554 +/- 0.13
P   2.57/938.53d           H 19.8   G  0.15   U  7.7  
q 1.65549185 +/- 0.0031    Q 2.09654791 +/- 0.00247
From 12 observations 2019 May 7-15; mean residual 0".20
Residuals in arcseconds: 
190507 F51  .06+  .00     190511 807  .07+  .02+    190515 807  .11+  .04+    
190507 F51  .06+  .01-    190511 807  .05+  .27-    190515 291  .14+  .04+    
190507 F51  .11-  .00     190515 807  .07+  .15-    190515 291  .42-  .48-    
190511 807  .15-  .26+    190515 807  .10+  .04+    190515 291  .03+  .50+    

Ephemerides (geocentric):
Date (UTC) HH   RA              Dec         delta   r     elong  mag " sig PA
---- -- -- --  -------------   -----------  ------ ------ -----  --- ---- ---
2019 05 21 03  16 06 00.855   -02 21 58.26  1.0265 2.0130 161.9 22.0 1.77 136
2019 05 21 04  16 05 57.145   -02 22 19.53  1.0265 2.0130 161.9 22.0 1.79 136
2019 05 21 05  16 05 53.435   -02 22 40.82  1.0265 2.0131 161.9 22.0 1.80 136
2019 05 21 06  16 05 49.725   -02 23 02.14  1.0266 2.0131 161.9 22.0 1.82 136
2019 05 21 07  16 05 46.014   -02 23 23.48  1.0266 2.0132 161.9 22.0 1.84 136
2019 05 21 08  16 05 42.303   -02 23 44.85  1.0266 2.0132 161.9 22.0 1.86 136
2019 05 21 09  16 05 38.592   -02 24 06.24  1.0266 2.0133 161.9 22.0 1.88 136
2019 05 21 10  16 05 34.880   -02 24 27.66  1.0266 2.0133 161.9 22.0 1.90 135
2019 05 21 11  16 05 31.168   -02 24 49.11  1.0266 2.0134 161.9 22.0 1.92 135
2019 05 21 12  16 05 27.455   -02 25 10.58  1.0266 2.0134 161.9 22.0 1.94 135
2019 05 21 13  16 05 23.742   -02 25 32.07  1.0266 2.0134 161.9 22.0 1.97 135
2019 05 21 14  16 05 20.029   -02 25 53.59  1.0266 2.0135 162.0 22.0 1.99 135
2019 05 21 15  16 05 16.316   -02 26 15.14  1.0267 2.0135 162.0 22.0 2.01 135
2019 05 21 16  16 05 12.602   -02 26 36.71  1.0267 2.0136 162.0 22.0 2.03 135
2019 05 21 17  16 05 08.889   -02 26 58.31  1.0267 2.0136 162.0 22.0 2.05 135
2019 05 21 18  16 05 05.174   -02 27 19.93  1.0267 2.0137 162.0 22.0 2.07 135
2019 05 21 19  16 05 01.460   -02 27 41.58  1.0267 2.0137 162.0 22.0 2.09 135
2019 05 21 20  16 04 57.745   -02 28 03.25  1.0267 2.0138 162.0 22.0 2.11 134
2019 05 21 21  16 04 54.030   -02 28 24.95  1.0268 2.0138 162.0 22.0 2.13 134
2019 05 21 22  16 04 50.315   -02 28 46.68  1.0268 2.0138 162.0 22.0 2.15 134
2019 05 21 23  16 04 46.600   -02 29 08.43  1.0268 2.0139 162.0 22.0 2.18 134
2019 05 22 00  16 04 42.884   -02 29 30.20  1.0268 2.0139 162.0 22.0 2.20 134
2019 05 22 01  16 04 39.169   -02 29 52.00  1.0268 2.0140 162.0 22.0 2.22 134
2019 05 22 02  16 04 35.453   -02 30 13.82  1.0268 2.0140 162.0 22.0 2.24 134
2019 05 22 03  16 04 31.736   -02 30 35.67  1.0269 2.0141 162.0 22.0 2.26 134
2019 05 22 04  16 04 28.020   -02 30 57.55  1.0269 2.0141 162.1 22.0 2.29 134
2019 05 22 05  16 04 24.303   -02 31 19.45  1.0269 2.0142 162.1 22.0 2.31 134
2019 05 22 06  16 04 20.587   -02 31 41.37  1.0269 2.0142 162.1 22.0 2.33 133
2019 05 22 07  16 04 16.870   -02 32 03.32  1.0269 2.0142 162.1 22.0 2.35 133
2019 05 22 08  16 04 13.153   -02 32 25.30  1.0270 2.0143 162.1 22.0 2.38 133
2019 05 22 09  16 04 09.436   -02 32 47.30  1.0270 2.0143 162.1 22.0 2.40 133
2019 05 22 10  16 04 05.718   -02 33 09.32  1.0270 2.0144 162.1 22.0 2.42 133
2019 05 22 11  16 04 02.001   -02 33 31.37  1.0270 2.0144 162.1 22.0 2.45 133
2019 05 22 12  16 03 58.283   -02 33 53.45  1.0271 2.0145 162.1 22.0 2.47 133
2019 05 22 13  16 03 54.566   -02 34 15.55  1.0271 2.0145 162.1 22.0 2.49 133
2019 05 22 14  16 03 50.848   -02 34 37.67  1.0271 2.0146 162.1 22.0 2.52 133
2019 05 22 15  16 03 47.130   -02 34 59.82  1.0271 2.0146 162.1 22.0 2.54 133
2019 05 22 16  16 03 43.412   -02 35 22.00  1.0272 2.0146 162.1 22.0 2.56 133
2019 05 22 17  16 03 39.694   -02 35 44.20  1.0272 2.0147 162.1 22.0 2.59 132
2019 05 22 18  16 03 35.976   -02 36 06.42  1.0272 2.0147 162.1 22.0 2.61 132
2019 05 22 19  16 03 32.258   -02 36 28.67  1.0272 2.0148 162.1 22.0 2.64 132
2019 05 22 20  16 03 28.540   -02 36 50.94  1.0273 2.0148 162.1 22.0 2.66 132
2019 05 22 21  16 03 24.822   -02 37 13.24  1.0273 2.0149 162.1 22.0 2.68 132
2019 05 22 22  16 03 21.103   -02 37 35.57  1.0273 2.0149 162.1 22.0 2.71 132
2019 05 22 23  16 03 17.385   -02 37 57.91  1.0273 2.0150 162.1 22.0 2.73 132
2019 05 23 00  16 03 13.667   -02 38 20.29  1.0274 2.0150 162.1 22.0 2.76 132
2019 05 23 01  16 03 09.948   -02 38 42.68  1.0274 2.0151 162.1 22.0 2.78 132
2019 05 23 02  16 03 06.230   -02 39 05.11  1.0274 2.0151 162.2 22.0 2.81 132